Location: Siratepeler Tepesi
(39.1042°N, 32.0781°E)
Time: 11:24:19
(UTC+00:00)

Cosmos 1980 Rocket - Pass Details

Date: 11 April 2026
Orbit: 826 x 850 km, 71.0° (Epoch: 14 May)

Event Time Altitude Azimuth Distance (km) Brightness Sun altitude
Rises 23:35:11 0° 347° (NNW) 3,418 5.9 -36.7°
Reaches altitude 10° 23:38:04 10° 0° (N) 2,481 5.2 -36.4°
Maximum altitude 23:42:47 26° 56° (NE) 1,614 4.1 -35.9°
Enters shadow 23:46:06 16° 102° (ESE) 2,089 4.4 -35.5°
